SCP
0 0 0 0 0 0 0 0 0 0 0 0 0 0 0 0 0 0 0 0 0 0 0 0 0 0 0 0 0 0 0 0
0 0 0 0 0 0 0 0 0 0 0 0 0 0 0 0 0 0 0 0 0 0 0 0 0 0 0 0 0 0 0 0
0 0 0 0 0 0 0 0 0 0 0 0 0 0 0 0 0 0 0 0 0 0 0 0 0 0 0 0 0 0 0 0
0 0 0 0 0 0 0 0 0 0 0 0 0 0 0 0 0 0 0 0 0 0 0 0 0 0 0 0 0 0 0 0
0 0 0 0 0 0 0 0 0 0 0 0 0 0 0 0 0 0 0 0 0 0 0 0 0 0 0 0 0 0 0 0
0 0 0 0 0 0 0 0 0 0 0 0 0 0 0 0 0 0 0 0 0 0 0 0 0 0 0 0 0 0 0 0
0 0 0 0 0 0 0 0 0 0 0 0 0 0 0 0 0 0 0 0 0 0 0 0 0 0 0 0 0 0 0 0
0 0 0 0 0 0 0 0 0 0 0 0 0 0 0 0 0 0 0 0 0 0 0 0 0 0 0 0 0 0 0 0
0 0 0 0 0 0 0 0 0 0 0 0 0 0 0 0 0 0 0 0 0 0 0 0 0 0 0 0 0 0 0 0
0 0 0 0 0 0 0 0 0 0 0 0 0 0 0 0 0 0 0 0 0 0 0 0 0 0 0 0 0 0 0 0
0 0 0 0 0 0 0 0 0 0 0 0 0 0 0 0 0 0 0 0 0 0 0 0 0 0 0 0 0 0 0 0
0 0 0 0 0 0 0 0 0 0 0 0 0 0 0 0 0 0 0 0 0 0 0 0 0 0 0 0 0 0 0 0
0 0 0 0 0 0 0 0 0 0 0 0 0 0 0 0 0 0 0 0 0 0 0 0 0 0 0 0 0 0 0 0
0 0 0 0 0 0 0 0 0 0 0 0 0 0 0 0 0 0 0 0 0 0 0 0 0 0 0 0 0 0 0 0
0 0 0 0 0 0 0 0 0 0 0 0 0 0 0 0 0 0 0 0 0 0 0 0 0 0 0 0 0 0 0 0
0 0 0 0 0 0 0 0 0 0 0 0 0 0 0 0 0 0 0 0 0 0 0 0 0 0 0 0 0 0 0 0
0 0 0 0 0 0 0 0 0 0 0 0 0 0 0 0 0 0 0 0 0 0 0 0 0 0 0 0 0 0 0 0
0 0 0 0 0 0 0 0 0 0 0 0 0 0 0 0 0 0 0 0 0 0 0 0 0 0 0 0 0 0 0 0
0 0 0 0 0 0 0 0 0 0 0 0 0 0 0 0 0 0 0 0 0 0 0 0 0 0 0 0 0 0 0 0
0 0 0 0 0 0 0 0 0 0 0 0 0 0 0 0 0 0 0 0 0 0 0 0 0 0 0 0 0 0 0 0
Wind_Speed_500mb
70 64 57 49 44 39 31 27 26 26 26 24 21 18 14 11 8 5 5 9 13 17 21 24 27 29 31 34 38 42 47 52
75 66 59 53 49 45 38 33 32 31 30 26 23 20 17 13 8 5 9 14 18 23 27 30 33 35 38 41 43 46 51 55
77 73 66 58 55 51 42 38 36 36 33 32 29 26 20 14 10 9 13 19 24 29 33 36 38 41 43 46 50 54 58 61
76 77 72 67 62 55 46 44 42 41 39 38 35 30 25 19 15 14 18 24 29 36 39 42 43 44 46 48 51 55 59 64
72 78 74 71 65 59 53 49 47 46 45 44 41 36 31 27 22 20 23 29 34 38 42 44 45 47 48 52 55 58 62 65
77 76 74 72 67 62 57 54 52 52 52 50 47 44 42 36 30 28 30 33 37 40 45 47 48 49 51 54 58 61 64 66
75 72 72 65 59 61 61 62 57 58 57 53 53 52 50 45 39 39 39 37 38 42 48 51 51 53 53 55 59 61 65 68
68 63 55 50 50 52 56 58 61 60 57 58 58 59 57 53 52 48 46 44 42 44 51 55 54 55 56 57 60 63 64 67
48 44 42 39 41 43 46 51 55 58 59 58 62 65 64 62 60 56 52 47 43 46 54 57 55 57 58 60 61 62 64 66
33 33 35 38 40 43 42 43 48 53 54 58 64 66 68 67 64 59 55 50 45 50 57 59 58 57 58 60 60 62 65 65
31 35 39 40 39 37 36 37 40 44 50 53 56 60 64 65 63 60 55 52 50 55 60 62 61 58 58 59 58 60 61 60
31 31 31 35 38 38 33 35 39 41 43 46 50 55 60 61 61 57 55 55 56 60 63 63 61 59 58 57 54 54 54 52
24 29 35 41 47 43 36 36 36 41 43 44 48 55 60 59 58 56 57 59 60 63 65 62 57 57 56 55 52 48 48 49
34 37 44 48 51 47 42 42 44 50 53 51 51 57 61 59 57 57 59 61 62 64 64 62 60 59 55 49 48 45 39 44
41 49 54 56 56 54 50 50 54 57 60 60 58 59 60 60 59 59 60 61 64 64 61 60 61 61 56 48 45 40 39 53
41 47 51 57 63 63 60 61 59 59 59 60 59 58 58 59 60 61 61 62 64 63 60 60 62 59 53 37 36 40 48 55
43 45 47 49 55 60 66 64 56 54 56 57 54 55 56 58 60 60 62 65 65 62 59 57 60 53 39 32 34 41 58 57
41 42 46 50 54 56 52 48 47 49 47 49 55 54 56 59 61 63 63 63 63 61 59 56 52 44 37 34 31 49 49 44
41 43 46 50 50 45 40 39 40 44 51 51 52 55 59 61 63 64 65 65 59 55 56 53 53 48 35 30 37 43 39 39
42 41 40 41 41 39 37 38 40 42 45 49 54 58 61 63 65 66 65 65 65 52 47 49 52 50 39 38 41 41 41 40
Wind_Direction_500mb
195 194 194 192 190 188 189 189 190 193 196 197 201 207 205 214 218 241 297 312 323 324 324 324 324 323 325 327 328 330 331 331
199 200 201 200 201 202 199 201 202 204 206 207 212 216 218 219 227 281 315 322 324 322 320 320 319 320 321 323 326 327 328 329
203 205 205 208 210 210 209 209 211 213 214 215 218 219 218 225 251 292 314 321 323 320 320 318 318 318 320 323 325 326 327 326
205 209 211 215 217 217 218 219 218 219 220 223 223 223 225 233 254 287 311 319 319 319 318 317 316 314 316 319 321 323 323 324
207 212 215 221 224 225 225 225 225 225 226 228 229 230 236 242 254 278 299 309 313 317 315 313 313 311 315 319 321 322 321 321
211 213 218 224 227 230 231 232 233 230 229 232 233 236 241 245 255 272 285 296 304 309 312 312 312 311 313 316 318 319 319 319
213 217 222 228 233 238 238 237 234 234 235 234 238 244 247 251 258 268 276 282 294 305 310 310 310 309 310 313 315 317 318 318
213 220 228 233 241 242 244 241 238 238 237 238 243 248 252 255 260 264 270 278 291 305 308 307 308 307 307 310 314 316 316 315
213 221 227 229 238 244 244 241 237 237 238 242 246 251 254 258 262 263 269 276 288 303 306 305 304 304 306 309 313 314 315 315
213 217 229 236 240 241 239 232 231 236 241 247 251 256 259 260 260 262 268 274 286 299 303 302 301 302 305 308 312 313 313 314
218 228 232 231 229 230 230 231 236 243 251 256 260 261 259 258 259 262 267 274 285 295 301 302 300 302 305 307 311 310 309 311
225 232 233 229 227 219 221 246 261 252 253 258 259 259 257 257 259 262 267 276 286 294 298 298 297 299 301 306 309 308 310 310
238 241 234 228 221 224 248 269 255 249 252 259 265 261 257 257 259 263 270 277 284 291 295 294 293 296 300 305 307 305 305 306
243 249 241 227 229 237 263 263 257 254 255 260 264 260 257 256 259 264 270 276 282 289 290 290 292 294 299 303 301 305 303 305
246 249 241 231 237 243 259 261 261 258 257 256 257 258 258 259 263 267 272 277 283 285 285 286 290 293 298 301 311 322 312 304
251 252 242 240 244 249 257 265 265 259 257 255 256 259 260 262 264 268 272 277 282 283 283 284 286 291 297 304 303 309 297 295
247 247 238 240 248 255 259 263 258 255 255 255 259 263 263 264 267 270 273 277 279 280 282 284 287 289 288 293 293 290 284 296
244 245 245 251 258 262 257 253 254 256 259 264 264 264 264 265 268 271 273 274 275 275 275 274 277 275 283 282 288 277 289 292
247 250 255 258 258 251 247 249 248 253 260 260 261 263 265 267 268 270 272 273 269 269 272 273 274 277 272 279 272 286 287 291
253 253 249 246 243 239 243 250 254 257 260 264 266 268 269 270 271 271 271 272 274 268 264 268 270 273 275 268 281 285 286 290
Wind_Speed_850mb
70 64 57 49 44 39 31 27 26 26 26 24 21 18 14 11 8 5 5 9 13 17 21 24 27 29 31 34 38 42 47 52
75 66 59 53 49 45 38 33 32 31 30 26 23 20 17 13 8 5 9 14 18 23 27 30 33 35 38 41 43 46 51 55
77 73 66 58 55 51 42 38 36 36 33 32 29 26 20 14 10 9 13 19 24 29 33 36 38 41 43 46 50 54 58 61
76 77 72 67 62 55 46 44 42 41 39 38 35 30 25 19 15 14 18 24 29 36 39 42 43 44 46 48 51 55 59 64
72 78 74 71 65 59 53 49 47 46 45 44 41 36 31 27 22 20 23 29 34 38 42 44 45 47 48 52 55 58 62 65
77 76 74 72 67 62 57 54 52 52 52 50 47 44 42 36 30 28 30 33 37 40 45 47 48 49 51 54 58 61 64 66
75 72 72 65 59 61 61 62 57 58 57 53 53 52 50 45 39 39 39 37 38 42 48 51 51 53 53 55 59 61 65 68
68 63 55 50 50 52 56 58 61 60 57 58 58 59 57 53 52 48 46 44 42 44 51 55 54 55 56 57 60 63 64 67
48 44 42 39 41 43 46 51 55 58 59 58 62 65 64 62 60 56 52 47 43 46 54 57 55 57 58 60 61 62 64 66
33 33 35 38 40 43 42 43 48 53 54 58 64 66 68 67 64 59 55 50 45 50 57 59 58 57 58 60 60 62 65 65
31 35 39 40 39 37 36 37 40 44 50 53 56 60 64 65 63 60 55 52 50 55 60 62 61 58 58 59 58 60 61 60
31 31 31 35 38 38 33 35 39 41 43 46 50 55 60 61 61 57 55 55 56 60 63 63 61 59 58 57 54 54 54 52
24 29 35 41 47 43 36 36 36 41 43 44 48 55 60 59 58 56 57 59 60 63 65 62 57 57 56 55 52 48 48 49
34 37 44 48 51 47 42 42 44 50 53 51 51 57 61 59 57 57 59 61 62 64 64 62 60 59 55 49 48 45 39 44
41 49 54 56 56 54 50 50 54 57 60 60 58 59 60 60 59 59 60 61 64 64 61 60 61 61 56 48 45 40 39 53
41 47 51 57 63 63 60 61 59 59 59 60 59 58 58 59 60 61 61 62 64 63 60 60 62 59 53 37 36 40 48 55
43 45 47 49 55 60 66 64 56 54 56 57 54 55 56 58 60 60 62 65 65 62 59 57 60 53 39 32 34 41 58 57
41 42 46 50 54 56 52 48 47 49 47 49 55 54 56 59 61 63 63 63 63 61 59 56 52 44 37 34 31 49 49 44
41 43 46 50 50 45 40 39 40 44 51 51 52 55 59 61 63 64 65 65 59 55 56 53 53 48 35 30 37 43 39 39
42 41 40 41 41 39 37 38 40 42 45 49 54 58 61 63 65 66 65 65 65 52 47 49 52 50 39 38 41 41 41 40
Wind_Direction_850mb
195 194 194 192 190 188 189 189 190 193 196 197 201 207 205 214 218 241 297 312 323 324 324 324 324 323 325 327 328 330 331 331
199 200 201 200 201 202 199 201 202 204 206 207 212 216 218 219 227 281 315 322 324 322 320 320 319 320 321 323 326 327 328 329
203 205 205 208 210 210 209 209 211 213 214 215 218 219 218 225 251 292 314 321 323 320 320 318 318 318 320 323 325 326 327 326
205 209 211 215 217 217 218 219 218 219 220 223 223 223 225 233 254 287 311 319 319 319 318 317 316 314 316 319 321 323 323 324
207 212 215 221 224 225 225 225 225 225 226 228 229 230 236 242 254 278 299 309 313 317 315 313 313 311 315 319 321 322 321 321
211 213 218 224 227 230 231 232 233 230 229 232 233 236 241 245 255 272 285 296 304 309 312 312 312 311 313 316 318 319 319 319
213 217 222 228 233 238 238 237 234 234 235 234 238 244 247 251 258 268 276 282 294 305 310 310 310 309 310 313 315 317 318 318
213 220 228 233 241 242 244 241 238 238 237 238 243 248 252 255 260 264 270 278 291 305 308 307 308 307 307 310 314 316 316 315
213 221 227 229 238 244 244 241 237 237 238 242 246 251 254 258 262 263 269 276 288 303 306 305 304 304 306 309 313 314 315 315
213 217 229 236 240 241 239 232 231 236 241 247 251 256 259 260 260 262 268 274 286 299 303 302 301 302 305 308 312 313 313 314
218 228 232 231 229 230 230 231 236 243 251 256 260 261 259 258 259 262 267 274 285 295 301 302 300 302 305 307 311 310 309 311
225 232 233 229 227 219 221 246 261 252 253 258 259 259 257 257 259 262 267 276 286 294 298 298 297 299 301 306 309 308 310 310
238 241 234 228 221 224 248 269 255 249 252 259 265 261 257 257 259 263 270 277 284 291 295 294 293 296 300 305 307 305 305 306
243 249 241 227 229 237 263 263 257 254 255 260 264 260 257 256 259 264 270 276 282 289 290 290 292 294 299 303 301 305 303 305
246 249 241 231 237 243 259 261 261 258 257 256 257 258 258 259 263 267 272 277 283 285 285 286 290 293 298 301 311 322 312 304
251 252 242 240 244 249 257 265 265 259 257 255 256 259 260 262 264 268 272 277 282 283 283 284 286 291 297 304 303 309 297 295
247 247 238 240 248 255 259 263 258 255 255 255 259 263 263 264 267 270 273 277 279 280 282 284 287 289 288 293 293 290 284 296
244 245 245 251 258 262 257 253 254 256 259 264 264 264 264 265 268 271 273 274 275 275 275 274 277 275 283 282 288 277 289 292
247 250 255 258 258 251 247 249 248 253 260 260 261 263 265 267 268 270 272 273 269 269 272 273 274 277 272 279 272 286 287 291
253 253 249 246 243 239 243 250 254 257 260 264 266 268 269 270 271 271 271 272 274 268 264 268 270 273 275 268 281 285 286 290